Retour au catalogue

QIANFAN-116

ActifCommunicationsPO
NORAD 68643·PAYLOAD·🇨🇳 China

Lancé Apr 7, 2026 depuis Wenchang Space Launch Site

Loading…

Prochains Passages (prochaines 24 heures)

TLE

FraisSource: Space-Track

Époque: Sep 14, 2026, 13:33 UTC

1 68643U 26075H   26257.56501506  .00000066  00000-0  84255-4 0  9997
2 68643  88.9866 311.8571 0002445  90.4064 269.7367 13.51024809 21879

Suivez QIANFAN-116 en temps réel avec AllMySat

Download on the App Store